Hourly Data Report for June 16, 2021

WESTERN HEAD
NOVA SCOTIA
Current Station Operator: ECCC - MSC

43°59'24.070" N
64°39'51.008" W
10.10 m
8206240
71411
WWE

Download Data

Hourly Data (June 2021)
Hourly Data Report for June 16, 2021
TIME
LST
Temp Definition
°C
Dew Point Definition
°C
Rel Hum Definition
%
Precip. Amount Definition
mm

Wind Dir Definition
10's deg

Wind Spd Definition
km/h
Visibility Definition
km
Stn Press Definition
kPa
Hmdx Definition


Wind Chill Definition


Weather Definition


00:00 11.8 LegendMM LegendMM 0.0 18 7   100.40     LegendNANA
01:00 11.9 LegendMM LegendMM 0.0 23 8   100.38     LegendNANA
02:00 11.5 LegendMM LegendMM 0.0 20 4   100.30     LegendNANA
03:00 11.4 LegendMM LegendMM 0.0 21 7   100.25     LegendNANA
04:00 11.7 LegendMM LegendMM 4.4 16 6   100.16     LegendNANA
05:00 12.9 LegendMM LegendMM 0.6 24 7   100.19     LegendNANA
06:00 12.5 LegendMM LegendMM 0.0 17 6   100.18     LegendNANA
07:00 13.2 LegendMM LegendMM 0.2 22 8   100.17     LegendNANA
08:00 12.7 LegendMM LegendMM 0.0 20 8   100.13     LegendNANA
09:00 13.7 LegendMM LegendMM 0.0 22 9   100.12     LegendNANA
10:00 13.8 LegendMM LegendMM 0.0 18 6   100.09     LegendNANA
11:00 15.3 LegendMM LegendMM 0.0 21 7   100.08     LegendNANA
12:00 15.4 LegendMM LegendMM 0.0 23 7   100.05     LegendNANA
13:00 17.1 LegendMM LegendMM 0.0 22 7   100.03     LegendNANA
14:00 16.1 16.1 100 0.0 19 19   100.02     LegendNANA
15:00 16.5 14.7 89 0.0 25 9   100.07     LegendNANA
16:00 16.1 13.8 86 0.0 21 11   100.11     LegendNANA
17:00 24.9 16.1 58 0.0 27 19   100.14 30   LegendNANA
18:00 21.8 14.8 65 0.0 29 16   100.20 26   LegendNANA
19:00 20.4 12.2 59 0.0 29 17   100.30     LegendNANA
20:00 17.4 11.6 69 0.0 27 12   100.40     LegendNANA
21:00 13.3 10.2 81 0.0 25 7   100.51     LegendNANA
22:00 11.5 9.6 88 0.0 24 13   100.59     LegendNANA
23:00 12.5 9.3 81 0.0 25 13   100.64     LegendNANA

Notes on Data Quality.

Legend

  • E = Estimated
  • M = Missing
  • NA = Not Available*
  • [empty] = Indicates an unobserved value
Date modified: